CZ-6A DEB

Satellite information

Favourite Embed

Satellite Type and Status

DEBRISIN ORBIT

Key statistics

Satellite CZ-6A DEB at a glance.

Uptime

970

Days in orbit

Revolutions

≈ 14.4

Per day

Orbit

SSO

Sun Synchronous Orbit

Inclination

98.8

Latest

Satellite identification and parameters

Extended collection of information and parameters for CZ-6A DEB.

Object identification

Identified? True

Debris? True

Object name: CZ-6A DEB

International designator: 2022-151LU

Object number (NORAD): 54568

Object ID (CCSDS): 54568

Country: PEOPLES REPUBLIC OF CHINA (PRC)

Current information (Y/N): Y

RCS size: SMALL

Orbital parameters

Period: 100.007 minutes

Inclination: 98.7558 deg

SMA: 7136.978 km

Apoapsis: 780.291 km

Periapsis: 737.395 km

RAAN: 214.8863 deg

Eccentricy: 0.0030052

Argument of periapsis: 238.7471 deg

Mean anomaly: 121.0771 deg

Mean motion: 14.39896196 rev/day

Mean motion (dot): 0.00004443 rev/day2

B* drag term: 0.0014203 1/REarth

Two-line elements (TLE)

Creation date: July 6, 2025, 6:05 p.m.

Reference frame: TEME

Reference center: EARTH

Epoch: July 6, 2025, 12:58 a.m. UTC

TLE line 0: 0 CZ-6A DEB

TLE line 1: 1 54568U 22151LU 25187.04034527 .00004443 00000-0 14203-2 0 9994

TLE line 2: 2 54568 98.7558 214.8863 0030052 238.7471 121.0771 14.39896196137855

Live tracking on map

Real-time ground track for satellite CZ-6A DEB.

In-orbit conjunctions

A list of the most updated potential collisions computed for object CZ-6A DEB.

Target Orbit TCA Probability of collision Miss distance Type
CZ-6A DEB LEO 2024-11-15 17:37:16 0.0001531338 120.0 (m) DEBRIS
ARIANE 1 R/B SSO 2024-09-18 23:43:59 0.0001106295 486.0 (m) ROCKET BODY

Associated space launch

Chinese satellite reported for atmospheric/ocean/environmental/spatial parameter research purposes, details TBD.

CZ-6A DEB was lifted into orbit during the mission ‘Long March 6A | Yunhai 3’, on board a Long March 6A space rocket.

The launch took place on Nov. 11, 2022, 10:52 p.m. from Launch Complex 9A.

For more information about the launch, click the button.

Launch to space Long March 6A | Yunhai 3
Long March 6A | Yunhai 3

Agency: N/A

Status: Launch Successful

Launch date: Nov. 11, 2022, 10:52 p.m. UTC

Rocket: Long March 6A

Launch pad: Launch Complex 9A

Location: Taiyuan Satellite Launch Center, People's Republic of China

...

Latest news about this satellite

There are no fresh news available about this satellite. Check back as we update our databases every day.


Newsletter sign-up

Weekly statistics, charts and insights to help you stay on top of the space industry.